[[{"header":{"parameterUnit":"m.s-1","parameterCategory":1,"la1":30.2991,"la2":30.254,"lo1":-89.0895,"lo2":-89.0444,"dy":0.0017,"dx":0.0017,"nx":28,"ny":28,"refTime":"2023-09-13T21:00:00:Z","depth":0,"parameterNumber":2,"parameterNumberName":"U-component_of_WINDS"},"data":[0,0,0,0,0,0,0,0,0,0,0,0,0,0,0,0,0,0,0,0,0,0,0,0,0,0,0,0,0,0,0,0,0,0,0,0,0,0,0,0,0,0,0,0,0,0,0,0,0,0,0,0,0,0,0,0,0,0,-2.6271,-2.6271,0,-2.6253,-2.6253,-2.6253,-2.618,-2.6178,-2.6176,-2.6175,-2.6157,-2.6158,-2.6159,0,0,0,0,0,0,0,0,0,0,0,0,0,-2.6245,-2.6245,-2.6271,-2.6271,-2.6271,-2.6253,-2.6253,-2.6252,-2.618,-2.6178,-2.6176,-2.6174,-2.6157,-2.6158,-2.6159,0,0,0,0,0,0,0,0,0,0,0,0,0,-2.6244,-2.6246,-2.6271,-2.6232,-2.6229,-2.6253,-2.6253,-2.6252,-2.618,-2.6178,-2.6175,-2.6173,-2.6156,-2.6158,-2.6159,-2.622,0,0,-2.6164,-2.6165,0,0,0,0,0,0,0,0,-2.6244,-2.6245,-2.6238,-2.6235,-2.6231,-2.6216,-2.6237,-2.6242,-2.6181,-2.6199,-2.6175,-2.6172,-2.6179,-2.6178,-2.618,-2.6219,-2.6218,-2.6165,-2.6166,-2.6166,-2.6167,0,0,0,0,0,0,0,-2.6245,-2.6246,-2.6264,-2.6238,-2.6234,-2.6216,-2.6214,-2.6237,-2.6203,-2.6197,-2.6192,-2.6191,-2.6176,-2.6179,-2.618,-2.6218,-2.6165,-2.6166,-2.6167,-2.6168,-2.6304,-2.6307,0,0,0,0,0,0,-2.625,-2.6246,-2.6265,-2.6263,-2.6232,-2.6219,-2.6216,-2.6223,-2.6203,-2.6197,-2.6193,-2.6187,-2.6178,-2.6178,-2.6179,-2.6246,-2.6166,-2.6168,-2.6169,-2.6302,-2.6305,-2.6308,0,0,0,0,0,0,-2.625,-2.6252,-2.6265,-2.6253,-2.6254,-2.6222,-2.6231,-2.6224,-2.6227,-2.6199,-2.6193,-2.6202,-2.6176,-2.6176,-2.621,-2.6245,-2.6169,-2.617,-2.6299,-2.6303,-2.6306,-2.6384,0,0,0,0,0,0,-2.6249,-2.6253,-2.6275,-2.6254,-2.6255,-2.6297,-2.6233,-2.6226,-2.623,-2.6223,-2.6206,-2.6201,-2.6174,-2.6208,-2.6212,-2.6246,-2.6171,-2.6295,-2.63,-2.6305,-2.6378,-2.639,-2.64,0,0,0,0,0,-2.6248,-2.6298,-2.6276,-2.6279,-2.6282,-2.6299,-2.6299,-2.6266,-2.6233,-2.6255,-2.6238,-2.6201,-2.6241,-2.6212,-2.6215,-2.6251,-2.6293,-2.6299,-2.6305,-2.6373,-2.6387,-2.64,0,0,0,0,0,0,-2.6323,-2.6294,-2.627,-2.6314,-2.631,-2.6286,-2.6313,-2.6283,-2.6287,-2.628,-2.624,-2.6237,-2.6276,-2.6267,-2.6235,-2.6308,-2.6261,-2.6268,-2.6311,-2.6325,-2.6336,-2.6336,-2.6173,0,0,0,0,0,-2.6345,-2.6361,-2.6335,-2.6376,-2.6375,-2.6345,-2.6351,-2.6326,-2.632,-2.6318,-2.6302,-2.6298,-2.6309,-2.6317,-2.6326,-2.6377,-2.6372,-2.6403,-2.6415,-2.6424,-2.6429,-2.6455,-2.6468,-2.6327,-2.6327,-2.6327,0,0,-2.6389,-2.6376,-2.6388,-2.6391,-2.6384,-2.6401,-2.6344,-2.6365,-2.6377,-2.6321,-2.635,-2.634,-2.6332,-2.6375,-2.6392,-2.6368,-2.6468,-2.6432,-2.6439,-2.6439,-2.6462,-2.6475,-2.6487,-2.6331,-2.6331,-2.633,0,0,-2.6478,-2.6471,-2.6503,-2.6498,-2.6489,-2.6469,-2.6477,-2.6459,-2.6449,-2.6479,-2.6437,-2.6452,-2.6472,-2.6468,-2.6468,-2.6558,-2.6524,-2.6563,-2.6619,-2.6645,-2.6656,-2.6665,-2.6695,-2.6706,-2.6569,-2.6569,-2.6569,0,-2.6535,-2.6559,-2.6524,-2.6547,-2.655,-2.65,-2.6533,-2.653,-2.6525,-2.6527,-2.6501,-2.6525,-2.6517,-2.6556,-2.6578,-2.6582,-2.6589,-2.6562,-2.6657,-2.6666,-2.6674,-2.6702,-2.6714,-2.6573,-2.6573,-2.6573,-2.6572,0,-2.6627,-2.6645,-2.6673,-2.6668,-2.6674,-2.6702,-2.6672,-2.6682,-2.6658,-2.6641,-2.6672,-2.666,-2.6665,-2.6674,-2.665,-2.6711,-2.6695,-2.6664,-2.6615,-2.6693,-2.6718,-2.6729,-2.658,-2.6578,-2.6577,-2.6576,0,0,-2.676,-2.6737,-2.6747,-2.6744,-2.6731,-2.6744,-2.6771,-2.6776,-2.6784,-2.6784,-2.6804,-2.6823,-2.6793,-2.6794,-2.677,-2.6793,-2.6862,-2.6758,-2.6757,-2.6776,-2.6926,-2.6948,-2.6961,-2.6842,-2.6844,-2.6845,-2.6926,0,-2.6843,-2.6885,-2.6856,-2.6903,-2.6918,-2.6873,-2.6896,-2.6891,-2.6876,-2.6887,-2.6871,-2.6885,-2.6846,-2.6846,-2.6866,-2.685,-2.6892,-2.6844,-2.6859,-2.686,-2.6859,-2.6975,-2.6998,-2.7074,-2.6936,-2.6938,-2.6939,0,-2.6945,-2.6947,-2.6996,-2.6979,-2.6985,-2.7006,-2.7007,-2.7019,-2.7013,-2.7001,-2.7002,-2.6973,-2.6998,-2.6953,-2.6986,-2.6954,-2.6959,-2.6953,-2.6955,-2.6952,-2.6902,-2.6973,-2.7098,-2.7108,-2.6955,-2.6953,-2.6952,0,-2.7033,-2.705,-2.708,-2.7079,-2.7062,-2.7077,-2.7071,-2.7062,-2.7067,-2.7069,-2.7072,-2.7078,-2.7081,-2.7086,-2.7059,-2.7029,-2.7096,-2.7049,-2.7085,-2.7086,-2.7098,-2.7097,-2.7223,-2.7107,-2.7107,-2.7106,-2.7106,0,-2.7127,-2.7158,-2.7119,-2.7138,-2.7172,-2.7139,-2.7173,-2.7162,-2.7155,-2.717,-2.7133,-2.7149,-2.7114,-2.7126,-2.7106,-2.7135,-2.7138,-2.7128,-2.7121,-2.7129,-2.713,-2.713,-2.7122,-2.7109,-2.7109,-2.7108,-2.7108,0,-2.723,-2.7206,-2.7236,-2.7217,-2.7213,-2.7239,-2.7223,-2.7239,-2.7223,-2.7244,-2.7247,-2.7221,-2.7234,-2.7209,-2.7218,-2.7204,-2.7246,-2.7233,-2.7247,-2.7242,-2.7279,-2.7275,-2.7406,-2.7421,-2.7299,-2.73,-2.7301,0,-2.7289,-2.7312,-2.7296,-2.7304,-2.7299,-2.7312,-2.7317,-2.7286,-2.7293,-2.7288,-2.7305,-2.7315,-2.732,-2.7343,-2.7325,-2.7332,-2.7317,-2.7363,-2.7318,-2.7325,-2.7315,-2.7312,-2.7314,-2.7371,-2.7373,-2.7374,-2.7375,0,-2.7397,-2.7384,-2.7392,-2.7396,-2.7403,-2.7405,-2.7404,-2.7413,-2.7381,-2.739,-2.7402,-2.7407,-2.7417,-2.7426,-2.743,-2.7423,-2.7393,-2.739,-2.7398,-2.7405,-2.7411,-2.7406,-2.7269,-2.7386,-2.7385,-2.7384,-2.7384,-2.7383,-2.7478,-2.7495,-2.7487,-2.7497,-2.7494,-2.7494,-2.7508,-2.7494,-2.7504,-2.7509,-2.7491,-2.7507,-2.7501,-2.7502,-2.7499,-2.7512,-2.7491,-2.7504,-2.7506,-2.7509,-2.7514,-2.7412,-2.7513,-2.7512,-2.7512,-2.7512,-2.7511,0,-2.7581,-2.7573,-2.7584,-2.7583,-2.7592,-2.7565,-2.7563,-2.7571,-2.7586,-2.7583,-2.7589,-2.7603,-2.7613,-2.7597,-2.7604,-2.7617,-2.7603,-2.762,-2.7617,-2.7615,-2.7533,-2.7524,-2.763,-2.763,-2.763,-2.763,-2.763,-2.763,-2.7635,-2.7663,-2.7649,-2.7675,-2.7668,-2.7683,-2.7684,-2.7685,-2.7681,-2.7699,-2.7706,-2.7696,-2.7688,-2.7694,-2.7702,-2.7697,-2.77,-2.772,-2.7711,-2.7633,-2.7621,-2.761,-2.7601,-2.7722,-2.7722,-2.7791,-2.7792,-2.7792]},{"header":{"parameterUnit":"m.s-1","parameterCategory":1,"la1":30.2991,"la2":30.254,"lo1":-89.0895,"lo2":-89.0444,"dy":0.0017,"dx":0.0017,"nx":28,"ny":28,"refTime":"2023-09-13T21:00:00:Z","depth":0,"parameterNumber":3,"parameterNumberName":"V-component_of_WINDS"},"data":[0,0,0,0,0,0,0,0,0,0,0,0,0,0,0,0,0,0,0,0,0,0,0,0,0,0,0,0,0,0,0,0,0,0,0,0,0,0,0,0,0,0,0,0,0,0,0,0,0,0,0,0,0,0,0,0,0,0,-1.1906,-1.1907,0,-1.2056,-1.2057,-1.2059,-1.2137,-1.2137,-1.2137,-1.2137,-1.2289,-1.2293,-1.2296,0,0,0,0,0,0,0,0,0,0,0,0,0,-1.1685,-1.1688,-1.1906,-1.1908,-1.1909,-1.2055,-1.2058,-1.206,-1.2137,-1.2137,-1.2137,-1.2137,-1.2288,-1.2292,-1.2297,0,0,0,0,0,0,0,0,0,0,0,0,0,-1.1802,-1.169,-1.1905,-1.1966,-1.1973,-1.2055,-1.2058,-1.206,-1.2137,-1.2137,-1.2137,-1.2138,-1.2286,-1.2292,-1.2298,-1.2331,0,0,-1.2316,-1.2318,0,0,0,0,0,0,0,0,-1.1795,-1.181,-1.1955,-1.1962,-1.197,-1.2078,-1.2035,-1.2151,-1.2137,-1.2075,-1.2137,-1.2138,-1.2218,-1.223,-1.2258,-1.2338,-1.2344,-1.2316,-1.232,-1.2322,-1.2324,0,0,0,0,0,0,0,-1.1787,-1.1804,-1.1965,-1.1957,-1.1966,-1.1985,-1.2002,-1.2057,-1.2144,-1.208,-1.2086,-1.2103,-1.2222,-1.2252,-1.2262,-1.2346,-1.2316,-1.2321,-1.2325,-1.2327,-1.2461,-1.2461,0,0,0,0,0,0,-1.177,-1.1797,-1.196,-1.197,-1.1881,-1.1989,-1.2008,-1.2043,-1.2143,-1.2159,-1.2103,-1.2106,-1.2242,-1.2255,-1.2267,-1.2313,-1.2322,-1.2328,-1.2331,-1.2461,-1.2461,-1.2461,0,0,0,0,0,0,-1.1765,-1.1783,-1.1954,-1.1885,-1.1908,-1.1992,-1.2031,-1.2046,-1.2075,-1.216,-1.2176,-1.2117,-1.2242,-1.2259,-1.2314,-1.2319,-1.233,-1.2336,-1.2461,-1.2461,-1.2461,-1.2403,0,0,0,0,0,0,-1.1758,-1.1781,-1.1795,-1.1885,-1.1912,-1.1999,-1.2032,-1.2049,-1.2085,-1.2091,-1.2178,-1.2192,-1.2244,-1.2305,-1.232,-1.2327,-1.234,-1.2461,-1.2461,-1.2461,-1.2405,-1.2401,-1.2398,0,0,0,0,0,-1.175,-1.1772,-1.1795,-1.1815,-1.1931,-1.1999,-1.2015,-1.2074,-1.2085,-1.21,-1.2155,-1.2189,-1.2316,-1.231,-1.2328,-1.2337,-1.2461,-1.2461,-1.2461,-1.2407,-1.2402,-1.2398,0,0,0,0,0,0,-1.168,-1.1785,-1.1812,-1.1864,-1.1922,-1.2012,-1.2032,-1.2067,-1.2123,-1.2126,-1.2196,-1.2215,-1.2264,-1.2306,-1.2298,-1.2374,-1.2392,-1.2396,-1.2345,-1.2341,-1.2337,-1.2326,-1.2345,0,0,0,0,0,-1.1671,-1.1719,-1.1808,-1.1845,-1.1873,-1.1947,-1.198,-1.202,-1.2083,-1.2108,-1.2167,-1.2225,-1.2279,-1.2312,-1.2366,-1.2412,-1.2431,-1.2426,-1.2423,-1.2419,-1.2422,-1.2449,-1.2447,-1.2461,-1.2461,-1.2461,0,0,-1.1652,-1.1716,-1.1741,-1.1833,-1.1883,-1.193,-1.1968,-1.2016,-1.2051,-1.2115,-1.2171,-1.2216,-1.2287,-1.2337,-1.2363,-1.2374,-1.2422,-1.242,-1.2416,-1.242,-1.2449,-1.2447,-1.2446,-1.2461,-1.2461,-1.2461,0,0,-1.1643,-1.1695,-1.1733,-1.1782,-1.1857,-1.1907,-1.1915,-1.2,-1.2033,-1.2091,-1.2139,-1.2182,-1.2272,-1.2321,-1.2357,-1.2365,-1.2399,-1.2381,-1.2362,-1.2387,-1.2386,-1.2386,-1.2388,-1.2389,-1.2382,-1.2382,-1.2382,0,-1.161,-1.1683,-1.1747,-1.1793,-1.1831,-1.1892,-1.193,-1.1974,-1.2063,-1.2088,-1.2099,-1.2214,-1.2265,-1.2328,-1.233,-1.2358,-1.2369,-1.2371,-1.2382,-1.2382,-1.2382,-1.2385,-1.2386,-1.238,-1.238,-1.238,-1.238,0,-1.1639,-1.1689,-1.171,-1.1795,-1.1836,-1.1877,-1.1947,-1.1981,-1.2017,-1.2065,-1.2123,-1.2187,-1.2255,-1.2273,-1.2309,-1.2341,-1.2345,-1.2368,-1.2388,-1.2377,-1.2381,-1.2383,-1.2376,-1.2377,-1.2377,-1.2378,0,0,-1.1589,-1.1709,-1.1716,-1.1755,-1.1842,-1.1882,-1.1926,-1.1993,-1.202,-1.2079,-1.2118,-1.2193,-1.2214,-1.2255,-1.2298,-1.232,-1.2322,-1.2341,-1.2343,-1.2335,-1.2361,-1.2343,-1.2343,-1.2346,-1.2346,-1.2347,-1.2355,0,-1.1592,-1.1674,-1.1733,-1.1792,-1.1839,-1.1898,-1.1936,-1.1993,-1.2039,-1.2085,-1.2136,-1.2188,-1.2213,-1.2238,-1.2263,-1.2317,-1.2328,-1.2317,-1.2381,-1.2383,-1.2362,-1.2346,-1.2327,-1.2331,-1.2357,-1.2357,-1.2357,0,-1.1605,-1.1663,-1.1727,-1.181,-1.1832,-1.1865,-1.1932,-1.1975,-1.2041,-1.2073,-1.2119,-1.2162,-1.2211,-1.2226,-1.2293,-1.2284,-1.2314,-1.2344,-1.2346,-1.2354,-1.2369,-1.2353,-1.2334,-1.2334,-1.2361,-1.236,-1.236,0,-1.1562,-1.1656,-1.1707,-1.1738,-1.1836,-1.1858,-1.19,-1.1966,-1.2003,-1.206,-1.2085,-1.2146,-1.218,-1.2227,-1.2286,-1.2291,-1.2346,-1.2367,-1.2374,-1.2372,-1.2382,-1.2381,-1.2368,-1.2402,-1.2402,-1.2402,-1.2402,0,-1.1558,-1.1595,-1.1689,-1.172,-1.1763,-1.183,-1.187,-1.1916,-1.1975,-1.2016,-1.207,-1.2106,-1.2182,-1.2228,-1.2274,-1.2323,-1.2337,-1.2364,-1.2376,-1.2359,-1.2355,-1.2379,-1.238,-1.2402,-1.2402,-1.2402,-1.2402,0,-1.1517,-1.1581,-1.164,-1.1728,-1.1751,-1.1779,-1.1854,-1.1886,-1.1935,-1.1986,-1.2001,-1.2078,-1.2135,-1.2198,-1.2276,-1.2307,-1.2352,-1.2369,-1.233,-1.2337,-1.234,-1.2338,-1.2341,-1.2345,-1.2376,-1.2375,-1.2375,0,-1.151,-1.154,-1.1631,-1.1663,-1.1703,-1.1753,-1.1791,-1.1858,-1.1895,-1.1973,-1.1995,-1.2056,-1.2108,-1.2196,-1.2258,-1.2318,-1.2337,-1.2334,-1.2346,-1.2328,-1.2336,-1.2333,-1.2337,-1.233,-1.2329,-1.2328,-1.2328,0,-1.149,-1.1521,-1.1574,-1.1638,-1.1681,-1.1735,-1.179,-1.1812,-1.189,-1.1929,-1.1988,-1.2029,-1.2109,-1.2168,-1.2235,-1.2278,-1.2315,-1.2324,-1.2328,-1.2311,-1.2287,-1.23,-1.232,-1.2323,-1.2324,-1.2324,-1.2324,-1.2325,-1.1466,-1.1495,-1.1565,-1.1621,-1.167,-1.1721,-1.1756,-1.1809,-1.186,-1.1931,-1.1967,-1.2025,-1.2091,-1.2185,-1.2226,-1.2273,-1.2285,-1.2292,-1.2293,-1.2294,-1.2289,-1.228,-1.2285,-1.2285,-1.2286,-1.2286,-1.2286,0,-1.1449,-1.1497,-1.1549,-1.1625,-1.1669,-1.1702,-1.1765,-1.18,-1.1851,-1.191,-1.196,-1.2028,-1.2086,-1.2153,-1.2215,-1.224,-1.2258,-1.2254,-1.2252,-1.2261,-1.2275,-1.2264,-1.2237,-1.2237,-1.2237,-1.2237,-1.2237,-1.2237,-1.1446,-1.1497,-1.1536,-1.1612,-1.1659,-1.1717,-1.1751,-1.1797,-1.1844,-1.1918,-1.1967,-1.201,-1.2072,-1.2139,-1.2194,-1.2212,-1.2232,-1.2222,-1.2245,-1.2256,-1.226,-1.2264,-1.2255,-1.2226,-1.2226,-1.2228,-1.2228,-1.2228]}]]